User: anonymous
Location: Fort Wayne
(41.1310°N, 85.1290°W)
Time: 03:20:37
(UTC-04:00)
Language:

OPAL - Orbit

View from above orbital plane
View from above orbital plane
View from above satellite
View from above satellite

Ground track
Ground track

The orbit data is extracted from the following two-line orbital elements,

1 26063U 00004C   14108.18320613  .00000228  00000-0  97445-4 0  9422
2 26063 100.2019 243.2700 0036058 327.8363 032.0618 14.36342948745408
Epoch (UTC): 18 April 2014 04:23:49
Eccentricity: 0.0036058
inclination: 100.2019°
perigee height: 745 km
apogee height: 796 km
right ascension of ascending node: 243.2700°
argument of perigee: 327.8363°
revolutions per day: 14.36342948
mean anomaly at epoch: 32.0618°
orbit number at epoch: 74540

The dashed part of the orbit path shows where the satellite is in the earth's shadow,  

DLR